Regional Weather Roundup
Issued by NWS New Orleans/Baton Rouge, LA

Home | Current Version | Previous Version | Graphics & Text | Print | Product List | Glossary On
Versions: 1 2 3 4 5 6 7 8 9 10 11 12 13 14 15 16 17 18 19 20 21 22 23 24 25 26 27 28 29 30 31 32 33 34 35 36 37 38 39 40 41 42 43 44 45 46 47 48 49 50
929
ASUS44 KLIX 271505
RWRLIX
NEW ORLEANS REGIONAL WEATHER ROUNDUP
NATIONAL WEATHER SERVICE NEW ORLEANS LA
900 AM CST THU NOV 27 2014

NOTE: "FAIR" INDICATES FEW OR NO CLOUDS BELOW 12,000 FEET WITH NO
      SIGNIFICANT WEATHER AND/OR OBSTRUCTIONS TO VISIBILITY.
      SKY/WX - SKY CONDITION AND SIGNIFICANT WEATHER.
      TMP - AIR TEMPERATURE.     DP    - DEWPOINT TEMPERATURE.
      RH  - RELATIVE HUMIDITY.   PRES  - PRESSURE.
      HI  - HEAT INDEX.          WCI   - WIND CHILL INDEX.

*  THESE STATIONS ARE NOT NWS OR FAA STATIONS AND ARE NOT UNDER
   NWS QUALITY CONTROL.

LAZ038-040-048-061>063-065>067-069-271600-
SOUTHEAST LOUISIANA

CITY           SKY/WX    TMP DP  RH WIND       PRES   REMARKS
N.O. AUDUBON     N/A     56  35  46 MISG        N/A
N.O. INTL ARPT SUNNY     54  35  48 N14       30.45R
N.O. LAKEFRONT SUNNY     54  36  50 N18       30.45R
N.O. DOWNTOWN*   N/A     54  32  43 N10G21    30.44R
SLIDELL        SUNNY     52  33  48 N14G22    30.44R
BATON ROUGE    SUNNY     50  33  52 N9G20     30.47R
BOOTHVILLE     SUNNY     56  38  50 N15G23    30.43R
BELLE CHASSE   SUNNY     56  32  40 N13G20    30.43R
BOGALUSA*        N/A     51  36  56 N9        30.46R
NEW ROADS*       N/A     50  33  51 N10       30.47R
GONZALES*        N/A     52  33  49 N10G18    30.46R
HAMMOND*       SUNNY     52  34  50 N14       30.47R
HOUMA*         SUNNY     54  37  54 N14       30.45R
PORT FOURCHON* SUNNY     57  41  54 N13       30.46S

$$

MSZ070-080>082-271600-
SOUTHERN MISSISSIPPI

CITY           SKY/WX    TMP DP  RH WIND       PRES   REMARKS
MCCOMB         SUNNY     48  30  49 N13       30.45R
GULFPORT       SUNNY     51  35  54 N10       30.41R
BILOXI         SUNNY     52  35  51 N9G18     30.41R
PASCAGOULA     SUNNY     52  35  52 N15G23    30.40R
STENNIS ARPT*  SUNNY     50  32  50 N13G18    30.43R

$$

COASTAL OBSERVATIONS
LAKE AND NEARSHORE STATIONS

STATION/POSITION TIME  TEMP    WIND        PRES    WAVE
                       AIR SEA DIR/SP/G            HT/PER
                 (UTC) (F)     (DEG/KT/KT) (MB)    (FT/S)
PASCAGOULA       1500   51     350/ 10/ 15 1028.8
WAVELAND YACHT   1500   49     360/ 15/ 19 1029.2
GRAND ISLE       1500   56 59  340/  7/ 10 1030.8
SOUTHWEST PASS   1500   58                 1030.2
NEW CANAL        1500   52 54  360/ 15/ 18 1031.0
SHELL BEACH      1500   52 52  360/ 16/ 19 1030.0

OFFSHORE STATIONS

STATION/POSITION TIME  TEMP    WIND        PRES    WAVE
                       AIR SEA DIR/SP/G            HT/PER
                 (UTC) (F)     (DEG/KT/KT) (MB)    (FT/S)
64 S DAUPHIN ISL 1414   60 70  360/ 19/ 25 1029.8    5/ 6

$$




USA.gov is the U.S. government's official web portal to all federal, state and local government web resources and services.